Current weather by "City, St" or "zip code"  
 

Current Conditions: FLAGSTAFF

Clear


41.0 F

Last Updated on May 25 2024, 11:57 PM MST
Humidity: 55%
Wind Speed: 0.0 mph
Barometer 30.13 in
Dewpoint: 26.1 F
Visibility: 10.00 mi
Precip: --
Heat Index: NA
Wind Chill: NA
Current conditions at:

FLAGSTAFF (KFLG)

Lat: 35.13 Lon: 111.67

active severe weather and emergency alerts image image weather storm and storm spotter reports image weather observation monitoring service image
Active
Alerts
Storm Reports Obs
Monitoring

Sign-up For Email & Text Message Weather Alert Notification Services



Advertise Here

Observation History for FLAGSTAFF


Time Wind
(mph)
Vis
(mi)
Weather Precip (in) Temperature (F) Relative
Humidity
Wind
Chill
(F)
Heat
Index
(F)
Pressure
Air Dwpt altimeter
(in)
sea level
(mb)
Rmks
11:57 PM MST 0.0 10.00 Clear -- 41.0 26.1 55% NA NA 30.13 1020.3
10:57 PM MST 0.0 10.00 Clear -- 48.0 27.0 44% NA NA 30.12 1020.0
09:57 PM MST SW 8.1 10.00 Clear -- 52.0 28.0 39% NA NA 30.12 1020.0
08:57 PM MST SW 12.8 10.00 Clear -- 54.0 28.0 37% NA NA 30.09 1019.0
07:57 PM MST 12.8 10.00 Clear -- 55.9 28.0 34% NA NA 30.07 1018.3
06:57 PM MST 13.9 10.00 Clear -- 61.0 25.0 25% NA NA 30.04 1017.3
05:57 PM MST 16.1 10.00 Clear -- 64.0 24.1 22% NA NA 30.01 1016.3
03:57 PM MST 10.00 Clear -- 66.9 24.1 20% NA NA 30.00 1015.9
02:57 PM MST 20.8 10.00 Clear and Windy -- 66.9 26.1 21% NA NA 30.00 1015.9
01:57 PM MST 10.00 Clear -- 66.0 27.0 23% NA NA 30.00 1015.9
12:57 PM MST 10.00 Clear -- 64.9 27.0 24% NA NA 30.00 1015.9
11:57 AM MST 10.00 Clear -- 64.0 27.0 24% NA NA 29.99 1015.6
10:57 AM MST 10.00 Clear -- 62.1 25.0 24% NA NA 30.00 1015.9
07:57 AM MST 10.00 Clear -- 55.0 28.9 37% NA NA 29.97 1014.9
06:57 AM MST 10.00 Clear -- 53.1 30.9 43% NA NA 29.96 1014.6
05:57 AM MST W 3.4 10.00 Clear -- 46.9 30.0 52% 45.9 NA 29.97 1014.9
04:57 AM MST 0.0 10.00 Clear -- 46.0 28.0 49% NA NA 29.96 1014.6
03:57 AM MST 8.1 10.00 Clear -- 50.0 27.0 41% NA NA 29.97 1014.9
02:57 AM MST 9.2 10.00 Clear -- 51.1 26.1 38% NA NA 29.96 1014.6
01:57 AM MST 11.4 10.00 Clear -- 53.1 26.1 35% NA NA 29.97 1014.9
12:57 AM MST SW 15.0 10.00 Clear -- 55.9 25.0 30% NA NA 29.98 1015.2
11:57 PM MST 13.9 10.00 NULL -- 57.0 24.1 28% NA NA 29.99 1015.6
10:57 PM MST SW 15.0 10.00 Clear -- 57.0 23.0 27% NA NA 29.99 1015.6
09:57 PM MST SW 10.3 10.00 Clear -- 57.0 25.0 29% NA NA 30.02 1016.6

Regional Weather Observation


WILLIAMS CLARK (KCMR)

Clear
48.2 F

GRAND CANYON (KGCN)

Clear
NULL F

SEDONA (KSEZ)

Clear
62.6 F

PRESCOTT (KPRC)

Clear
57.9 F

WINSLOW (KINW)

Clear
59.0 F

PAYSON (KPAN)

Clear
51.8 F

Advertise Here


Advertise Here